| time (UTC) | temp F | wind direction | speed MPH | gust MPH | rain 1hr in | rain 24hr in | rain mn in | humidity % | barometer mb |
| 20260507195503 | 51 | 1 | 4.0 | 12.0 | 0.00 | 0.00 | 0.00 | 66 | 1009.8 |
| 20260507195003 | 51 | 5 | 2.0 | 12.0 | 0.00 | 0.00 | 0.00 | 67 | 1009.7 |
| 20260507194503 | 51 | 17 | 2.0 | 3.0 | 0.00 | 0.00 | 0.00 | 68 | 1009.8 |
| 20260507194024 | 51 | 19 | 3.0 | 5.0 | 0.00 | 0.00 | 0.00 | 67 | 1009.9 |
| 20260507193503 | 51 | 7 | 5.0 | 11.0 | 0.00 | 0.00 | 0.00 | 67 | 1009.9 |
| 20260507193024 | 52 | 347 | 6.0 | 16.0 | 0.00 | 0.00 | 0.00 | 64 | 1010.0 |
| 20260507192503 | 52 | 324 | 4.0 | 13.0 | 0.00 | 0.00 | 0.00 | 62 | 1009.9 |
| 20260507192003 | 52 | 343 | 4.0 | 12.0 | 0.00 | 0.00 | 0.00 | 60 | 1009.9 |
| 20260507191503 | 52 | 360 | 4.0 | 7.0 | 0.00 | 0.00 | 0.00 | 60 | 1009.9 |
| 20260507191024 | 52 | 360 | 4.0 | 11.0 | 0.00 | 0.00 | 0.00 | 59 | 1010.0 |
| 20260507190503 | 53 | 360 | 4.0 | 13.0 | 0.00 | 0.00 | 0.00 | 59 | 1009.9 |
| 20260507190004 | 53 | 360 | 4.0 | 11.0 | 0.00 | 0.00 | 0.00 | 59 | 1009.9 |
| 20260507185503 | 53 | 360 | 3.0 | 11.0 | 0.00 | 0.00 | 0.00 | 59 | 1009.9 |
| 20260507185003 | 53 | 360 | 3.0 | 11.0 | 0.00 | 0.00 | 0.00 | 60 | 1009.9 |
| 20260507184504 | 53 | 339 | 3.0 | 7.0 | 0.00 | 0.00 | 0.00 | 59 | 1009.9 |
| 20260507184003 | 53 | 309 | 4.0 | 15.0 | 0.00 | 0.00 | 0.00 | 59 | 1009.9 |
| 20260507183524 | 53 | 306 | 4.0 | 11.0 | 0.00 | 0.00 | 0.00 | 59 | 1009.9 |
| 20260507183003 | 53 | 325 | 4.0 | 11.0 | 0.00 | 0.00 | 0.00 | 60 | 1009.9 |
| 20260507182503 | 53 | 341 | 4.0 | 8.0 | 0.00 | 0.00 | 0.00 | 59 | 1009.9 |
| 20260507182003 | 53 | 355 | 4.0 | 12.0 | 0.00 | 0.00 | 0.00 | 59 | 1009.9 |
| 20260507181524 | 53 | 360 | 4.0 | 8.0 | 0.00 | 0.00 | 0.00 | 58 | 1009.9 |
| 20260507181003 | 53 | 360 | 3.0 | 8.0 | 0.00 | 0.00 | 0.00 | 57 | 1010.0 |
| 20260507180503 | 54 | 348 | 3.0 | 7.0 | 0.00 | 0.00 | 0.00 | 58 | 1010.0 |
| 20260507180024 | 54 | 340 | 4.0 | 7.0 | 0.00 | 0.00 | 0.00 | 57 | 1010.1 |
| 20260507175503 | 54 | 347 | 5.0 | 13.0 | 0.00 | 0.00 | 0.00 | 56 | 1010.0 |
| 20260507175003 | 54 | 342 | 4.0 | 15.0 | 0.00 | 0.00 | 0.00 | 56 | 1009.9 |
| 20260507174503 | 55 | 337 | 3.0 | 9.0 | 0.00 | 0.00 | 0.00 | 56 | 1010.0 |
| 20260507174003 | 55 | 338 | 3.0 | 5.0 | 0.00 | 0.00 | 0.00 | 55 | 1010.0 |
| 20260507173503 | 55 | 337 | 4.0 | 7.0 | 0.00 | 0.00 | 0.00 | 55 | 1010.0 |
| 20260507173003 | 55 | 350 | 6.0 | 13.0 | 0.00 | 0.00 | 0.00 | 56 | 1010.1 |
| 20260507172503 | 55 | 1 | 5.0 | 13.0 | 0.00 | 0.00 | 0.00 | 57 | 1010.2 |
| 20260507172003 | 55 | 5 | 4.0 | 8.0 | 0.00 | 0.00 | 0.00 | 55 | 1010.2 |
| 20260507171524 | 55 | 359 | 4.0 | 9.0 | 0.00 | 0.00 | 0.00 | 56 | 1010.2 |
| 20260507171003 | 55 | 4 | 6.0 | 12.0 | 0.00 | 0.00 | 0.00 | 56 | 1010.3 |
| 20260507170503 | 55 | 5 | 5.0 | 19.0 | 0.00 | 0.00 | 0.00 | 56 | 1010.4 |
| 20260507170003 | 55 | 354 | 4.0 | 12.0 | 0.00 | 0.00 | 0.00 | 55 | 1010.4 |
| 20260507165503 | 55 | 345 | 4.0 | 12.0 | 0.00 | 0.00 | 0.00 | 57 | 1010.4 |
| 20260507165003 | 55 | 349 | 5.0 | 12.0 | 0.00 | 0.00 | 0.00 | 58 | 1010.6 |
| 20260507164503 | 54 | 351 | 6.0 | 15.0 | 0.00 | 0.00 | 0.00 | 59 | 1010.5 |
| 20260507164004 | 54 | 355 | 5.0 | 13.0 | 0.00 | 0.00 | 0.00 | 57 | 1010.6 |
| 20260507163504 | 54 | 346 | 4.0 | 13.0 | 0.00 | 0.00 | 0.00 | 58 | 1010.7 |
| 20260507163004 | 54 | 334 | 4.0 | 8.0 | 0.00 | 0.00 | 0.00 | 59 | 1010.7 |
| 20260507162525 | 54 | 350 | 4.0 | 11.0 | 0.00 | 0.00 | 0.00 | 59 | 1010.7 |
| 20260507162025 | 54 | 360 | 5.0 | 11.0 | 0.00 | 0.00 | 0.00 | 59 | 1010.8 |
| 20260507161504 | 54 | 360 | 5.0 | 13.0 | 0.00 | 0.00 | 0.00 | 59 | 1010.8 |
| 20260507161005 | 53 | 360 | 5.0 | 11.0 | 0.00 | 0.00 | 0.00 | 58 | 1010.9 |
| 20260507160504 | 54 | 360 | 5.0 | 15.0 | 0.00 | 0.00 | 0.00 | 58 | 1010.9 |
| 20260507160004 | 54 | 360 | 5.0 | 13.0 | 0.00 | 0.00 | 0.00 | 58 | 1010.8 |
| 20260507155504 | 54 | 360 | 5.0 | 11.0 | 0.00 | 0.00 | 0.00 | 58 | 1010.9 |
| 20260507155004 | 54 | 360 | 4.0 | 15.0 | 0.00 | 0.00 | 0.00 | 57 | 1011.0 |
| 20260507154504 | 54 | 360 | 4.0 | 12.0 | 0.00 | 0.00 | 0.00 | 56 | 1011.0 |
| 20260507154004 | 54 | 360 | 5.0 | 13.0 | 0.00 | 0.00 | 0.00 | 58 | 1011.0 |
| 20260507153504 | 55 | 360 | 4.0 | 17.0 | 0.00 | 0.00 | 0.00 | 57 | 1011.0 |
| 20260507153004 | 55 | 356 | 4.0 | 8.0 | 0.00 | 0.00 | 0.00 | 57 | 1011.0 |
| 20260507152525 | 56 | 342 | 4.0 | 11.0 | 0.00 | 0.00 | 0.00 | 58 | 1011.0 |
| 20260507152004 | 56 | 311 | 4.0 | 11.0 | 0.00 | 0.00 | 0.00 | 58 | 1011.0 |
| 20260507151504 | 56 | 301 | 2.0 | 12.0 | 0.00 | 0.00 | 0.00 | 58 | 1010.9 |
| 20260507151004 | 56 | 335 | 2.0 | 5.0 | 0.00 | 0.00 | 0.00 | 38 | 1010.9 |
| 20260507150504 | 56 | 347 | 4.0 | 12.0 | 0.00 | 0.00 | 0.00 | 59 | 1011.0 |
| 20260507150004 | 55 | 360 | 3.0 | 11.0 | 0.00 | 0.00 | 0.00 | 59 | 1010.9 |
| 20260507145525 | 55 | 358 | 3.0 | 8.0 | 0.00 | 0.00 | 0.00 | 60 | 1010.9 |
| 20260507145004 | 55 | 358 | 3.0 | 8.0 | 0.00 | 0.00 | 0.00 | 60 | 1011.0 |
| 20260507144504 | 54 | 360 | 3.0 | 11.0 | 0.00 | 0.00 | 0.00 | 61 | 1011.0 |
| 20260507144005 | 54 | 360 | 4.0 | 8.0 | 0.00 | 0.00 | 0.00 | 60 | 1011.1 |
| 20260507143504 | 54 | 360 | 3.0 | 11.0 | 0.00 | 0.00 | 0.00 | 60 | 1011.1 |
| 20260507143004 | 54 | 360 | 3.0 | 8.0 | 0.00 | 0.00 | 0.00 | 39 | 1011.2 |
| 20260507142525 | 53 | 360 | 3.0 | 8.0 | 0.00 | 0.00 | 0.00 | 61 | 1011.3 |
| 20260507142004 | 53 | 360 | 3.0 | 11.0 | 0.00 | 0.00 | 0.00 | 62 | 1011.3 |
| 20260507141504 | 53 | 360 | 3.0 | 8.0 | 0.00 | 0.00 | 0.00 | 63 | 1011.3 |
| 20260507141004 | 53 | 360 | 3.0 | 7.0 | 0.00 | 0.00 | 0.00 | 63 | 1011.5 |
| 20260507140504 | 52 | 1 | 4.0 | 12.0 | 0.00 | 0.00 | 0.00 | 63 | 1011.5 |
| 20260507140025 | 52 | 360 | 4.0 | 12.0 | 0.00 | 0.00 | 0.00 | 63 | 1011.5 |
| 20260507135525 | 52 | 360 | 3.0 | 8.0 | 0.00 | 0.00 | 0.00 | 64 | 1011.4 |
| 20260507135004 | 51 | 2 | 3.0 | 7.0 | 0.00 | 0.00 | 0.00 | 64 | 1011.5 |
| 20260507134504 | 50 | 360 | 3.0 | 7.0 | 0.00 | 0.00 | 0.00 | 68 | 1011.5 |
| 20260507134004 | 50 | 354 | 2.0 | 7.0 | 0.00 | 0.00 | 0.00 | 71 | 1011.4 |
| 20260507133505 | 49 | 347 | 2.0 | 4.0 | 0.00 | 0.00 | 0.00 | 73 | 1011.5 |
| 20260507133004 | 48 | 334 | 2.0 | 5.0 | 0.00 | 0.00 | 0.00 | 74 | 1011.6 |
| 20260507132504 | 48 | 335 | 1.0 | 7.0 | 0.00 | 0.00 | 0.00 | 55 | 1011.7 |
| 20260507132004 | 46 | 359 | 0.0 | 3.0 | 0.00 | 0.00 | 0.00 | 78 | 1011.5 |
| 20260507131504 | 46 | 360 | 1.0 | 4.0 | 0.00 | 0.00 | 0.00 | 80 | 1011.6 |
| 20260507131004 | 44 | 360 | 1.0 | 5.0 | 0.00 | 0.00 | 0.00 | 81 | 1011.5 |
| 20260507130525 | 44 | 360 | 1.0 | 5.0 | 0.00 | 0.00 | 0.00 | 82 | 1011.5 |
| 20260507130004 | 43 | 0 | 0.0 | 0.0 | 0.00 | 0.00 | 0.00 | 82 | 1011.5 |
| 20260507125504 | 42 | 0 | 0.0 | 0.0 | 0.00 | 0.00 | 0.00 | 82 | 1011.6 |
| 20260507125004 | 41 | 0 | 0.0 | 0.0 | 0.00 | 0.00 | 0.00 | 83 | 1011.5 |
| 20260507124504 | 41 | 0 | 0.0 | 0.0 | 0.00 | 0.00 | 0.00 | 83 | 1011.5 |
| 20260507124004 | 40 | 0 | 0.0 | 0.0 | 0.00 | 0.00 | 0.00 | 83 | 1011.5 |
| 20260507123504 | 40 | 0 | 0.0 | 0.0 | 0.00 | 0.00 | 0.00 | 83 | 1011.6 |
| 20260507123004 | 40 | 0 | 0.0 | 0.0 | 0.00 | 0.00 | 0.00 | 83 | 1011.6 |
| 20260507122504 | 39 | 0 | 0.0 | 0.0 | 0.00 | 0.00 | 0.00 | 84 | 1011.5 |
| 20260507122005 | 39 | 0 | 0.0 | 0.0 | 0.00 | 0.00 | 0.00 | 84 | 1011.6 |
| 20260507121504 | 38 | 0 | 0.0 | 0.0 | 0.00 | 0.00 | 0.00 | 84 | 1011.7 |
| 20260507121004 | 38 | 0 | 0.0 | 0.0 | 0.00 | 0.00 | 0.00 | 84 | 1011.7 |
| 20260507120504 | 38 | 0 | 0.0 | 0.0 | 0.00 | 0.00 | 0.00 | 84 | 1011.6 |
| 20260507120005 | 37 | 0 | 0.0 | 0.0 | 0.00 | 0.00 | 0.00 | 84 | 1011.6 |
| 20260507115504 | 37 | 0 | 0.0 | 0.0 | 0.00 | 0.00 | 0.00 | 84 | 1011.6 |
| 20260507115004 | 37 | 0 | 0.0 | 0.0 | 0.00 | 0.00 | 0.00 | 84 | 1011.6 |
| 20260507114504 | 36 | 0 | 0.0 | 0.0 | 0.00 | 0.00 | 0.00 | 85 | 1011.5 |
| 20260507114004 | 36 | 0 | 0.0 | 0.0 | 0.00 | 0.00 | 0.00 | 85 | 1011.4 |
| 20260507113504 | 36 | 0 | 0.0 | 0.0 | 0.00 | 0.00 | 0.00 | 85 | 1011.4 |
| 20260507113004 | 36 | 0 | 0.0 | 0.0 | 0.00 | 0.00 | 0.00 | 85 | 1011.4 |
| 20260507112504 | 35 | 0 | 0.0 | 0.0 | 0.00 | 0.00 | 0.00 | 85 | 1011.3 |
| 20260507112004 | 35 | 0 | 0.0 | 0.0 | 0.00 | 0.00 | 0.00 | 85 | 1011.3 |
| 20260507111525 | 35 | 0 | 0.0 | 0.0 | 0.00 | 0.00 | 0.00 | 85 | 1011.3 |
| 20260507111004 | 35 | 0 | 0.0 | 0.0 | 0.00 | 0.00 | 0.00 | 85 | 1011.3 |
| 20260507110526 | 35 | 0 | 0.0 | 0.0 | 0.00 | 0.00 | 0.00 | 85 | 1011.3 |
| 20260507110004 | 34 | 0 | 0.0 | 0.0 | 0.00 | 0.00 | 0.00 | 85 | 1011.2 |
| 20260507105504 | 34 | 0 | 0.0 | 0.0 | 0.00 | 0.00 | 0.00 | 85 | 1011.1 |
| 20260507105025 | 34 | 0 | 0.0 | 0.0 | 0.00 | 0.00 | 0.00 | 85 | 1011.1 |
| 20260507104504 | 34 | 0 | 0.0 | 0.0 | 0.00 | 0.00 | 0.00 | 84 | 1011.1 |
| 20260507104004 | 34 | 0 | 0.0 | 0.0 | 0.00 | 0.00 | 0.00 | 84 | 1011.0 |
| 20260507103504 | 34 | 0 | 0.0 | 0.0 | 0.00 | 0.00 | 0.00 | 84 | 1011.1 |
| 20260507103004 | 34 | 0 | 0.0 | 0.0 | 0.00 | 0.00 | 0.00 | 84 | 1011.1 |
| 20260507102504 | 34 | 0 | 0.0 | 0.0 | 0.00 | 0.00 | 0.00 | 84 | 1011.0 |
| 20260507102006 | 35 | 0 | 0.0 | 0.0 | 0.00 | 0.00 | 0.00 | 84 | 1011.1 |
| 20260507101504 | 35 | 0 | 0.0 | 0.0 | 0.00 | 0.00 | 0.00 | 84 | 1011.0 |
| 20260507101004 | 35 | 0 | 0.0 | 0.0 | 0.00 | 0.00 | 0.00 | 83 | 1010.9 |
| 20260507100504 | 35 | 0 | 0.0 | 0.0 | 0.00 | 0.00 | 0.00 | 83 | 1011.0 |
| 20260507100004 | 35 | 0 | 0.0 | 0.0 | 0.00 | 0.00 | 0.00 | 83 | 1011.0 |
| 20260507095504 | 35 | 0 | 0.0 | 0.0 | 0.00 | 0.00 | 0.00 | 83 | 1010.9 |
| 20260507095004 | 36 | 0 | 0.0 | 0.0 | 0.00 | 0.00 | 0.00 | 84 | 1011.0 |
| 20260507094505 | 36 | 0 | 0.0 | 0.0 | 0.00 | 0.00 | 0.00 | 83 | 1011.0 |
| 20260507094004 | 36 | 0 | 0.0 | 0.0 | 0.00 | 0.00 | 0.00 | 83 | 1011.0 |
| 20260507093504 | 36 | 0 | 0.0 | 0.0 | 0.00 | 0.00 | 0.00 | 83 | 1010.9 |
| 20260507093004 | 36 | 0 | 0.0 | 0.0 | 0.00 | 0.00 | 0.00 | 83 | 1011.0 |
| 20260507092525 | 36 | 0 | 0.0 | 0.0 | 0.00 | 0.00 | 0.00 | 83 | 1011.1 |
| 20260507092004 | 36 | 0 | 0.0 | 0.0 | 0.00 | 0.00 | 0.00 | 83 | 1011.1 |
| 20260507091504 | 36 | 0 | 0.0 | 0.0 | 0.00 | 0.00 | 0.00 | 83 | 1011.2 |
| 20260507091004 | 36 | 0 | 0.0 | 0.0 | 0.00 | 0.00 | 0.00 | 83 | 1011.1 |
| 20260507090504 | 37 | 0 | 0.0 | 0.0 | 0.00 | 0.00 | 0.00 | 83 | 1011.0 |
| 20260507090025 | 37 | 0 | 0.0 | 0.0 | 0.00 | 0.00 | 0.00 | 82 | 1011.0 |
| 20260507085504 | 37 | 0 | 0.0 | 0.0 | 0.00 | 0.00 | 0.00 | 82 | 1011.2 |
| 20260507085004 | 37 | 0 | 0.0 | 0.0 | 0.00 | 0.00 | 0.00 | 82 | 1011.2 |
| 20260507084504 | 37 | 0 | 0.0 | 0.0 | 0.00 | 0.00 | 0.00 | 81 | 1011.4 |
| 20260507084004 | 38 | 0 | 0.0 | 0.0 | 0.00 | 0.00 | 0.00 | 81 | 1011.4 |
| 20260507083504 | 38 | 0 | 0.0 | 0.0 | 0.00 | 0.00 | 0.00 | 81 | 1011.4 |
| 20260507083004 | 38 | 0 | 0.0 | 0.0 | 0.00 | 0.00 | 0.00 | 81 | 1011.3 |
| 20260507082504 | 38 | 0 | 0.0 | 0.0 | 0.00 | 0.00 | 0.00 | 80 | 1011.3 |
| 20260507082004 | 39 | 0 | 0.0 | 0.0 | 0.00 | 0.00 | 0.00 | 80 | 1011.3 |
| 20260507081504 | 39 | 0 | 0.0 | 0.0 | 0.00 | 0.00 | 0.00 | 80 | 1011.4 |
| 20260507081004 | 39 | 0 | 0.0 | 0.0 | 0.00 | 0.00 | 0.00 | 79 | 1011.3 |
| 20260507080525 | 39 | 0 | 0.0 | 0.0 | 0.00 | 0.00 | 0.00 | 79 | 1011.2 |
| 20260507080004 | 40 | 0 | 0.0 | 0.0 | 0.00 | 0.00 | 0.00 | 79 | 1011.3 |
| 20260507075525 | 40 | 0 | 0.0 | 0.0 | 0.00 | 0.00 | 0.00 | 79 | 1011.4 |
| 20260507075004 | 40 | 0 | 0.0 | 0.0 | 0.00 | 0.00 | 0.00 | 79 | 1011.3 |
| 20260507074504 | 41 | 0 | 0.0 | 0.0 | 0.00 | 0.00 | 0.00 | 79 | 1011.4 |
| 20260507074025 | 41 | 0 | 0.0 | 0.0 | 0.00 | 0.00 | 0.00 | 79 | 1011.4 |
| 20260507073504 | 41 | 0 | 0.0 | 0.0 | 0.00 | 0.00 | 0.00 | 79 | 1011.4 |
| 20260507073004 | 41 | 0 | 0.0 | 0.0 | 0.00 | 0.00 | 0.00 | 79 | 1011.5 |
| 20260507072504 | 42 | 0 | 0.0 | 0.0 | 0.00 | 0.00 | 0.00 | 79 | 1011.4 |
| 20260507072004 | 42 | 0 | 0.0 | 0.0 | 0.00 | 0.00 | 0.00 | 79 | 1011.3 |
| 20260507071504 | 42 | 0 | 0.0 | 0.0 | 0.00 | 0.00 | 0.00 | 80 | 1011.4 |
| 20260507071025 | 42 | 323 | 1.0 | 0.0 | 0.00 | 0.00 | 0.00 | 80 | 1011.4 |
| 20260507070504 | 42 | 323 | 1.0 | 7.0 | 0.00 | 0.00 | 0.00 | 80 | 1011.5 |
| 20260507070025 | 42 | 322 | 1.0 | 3.0 | 0.00 | 0.00 | 0.00 | 80 | 1011.5 |
| 20260507065526 | 42 | 320 | 1.0 | 7.0 | 0.00 | 0.00 | 0.00 | 80 | 1011.5 |
| 20260507065004 | 42 | 319 | 1.0 | 7.0 | 0.00 | 0.00 | 0.00 | 80 | 1011.6 |
| 20260507064504 | 42 | 318 | 1.0 | 3.0 | 0.00 | 0.00 | 0.00 | 80 | 1011.5 |
| 20260507064004 | 42 | 316 | 2.0 | 5.0 | 0.00 | 0.00 | 0.00 | 80 | 1011.5 |
| 20260507063504 | 42 | 331 | 2.0 | 5.0 | 0.00 | 0.00 | 0.00 | 80 | 1011.4 |
| 20260507063025 | 42 | 20 | 2.0 | 5.0 | 0.00 | 0.00 | 0.00 | 80 | 1011.4 |
| 20260507062504 | 42 | 10 | 3.0 | 5.0 | 0.00 | 0.00 | 0.00 | 80 | 1011.4 |
| 20260507062004 | 42 | 359 | 2.0 | 11.0 | 0.00 | 0.00 | 0.00 | 80 | 1011.5 |
| 20260507061504 | 42 | 349 | 0.0 | 4.0 | 0.00 | 0.00 | 0.00 | 80 | 1011.5 |
| 20260507061025 | 42 | 338 | 0.0 | 1.0 | 0.00 | 0.00 | 0.00 | 80 | 1011.2 |
| 20260507060504 | 42 | 340 | 0.0 | 3.0 | 0.00 | 0.00 | 0.00 | 79 | 1011.3 |
| 20260507060004 | 42 | 340 | 0.0 | 4.0 | 0.00 | 0.00 | 0.00 | 79 | 1011.3 |
| 20260507055504 | 42 | 338 | 1.0 | 3.0 | 0.00 | 0.01 | 0.00 | 79 | 1011.2 |
| 20260507055004 | 42 | 338 | 1.0 | 4.0 | 0.00 | 0.01 | 0.00 | 79 | 1011.3 |
| 20260507054525 | 42 | 338 | 1.0 | 3.0 | 0.00 | 0.01 | 0.00 | 80 | 1011.3 |
| 20260507054025 | 42 | 338 | 2.0 | 4.0 | 0.00 | 0.01 | 0.00 | 80 | 1011.3 |
| 20260507053504 | 42 | 339 | 2.0 | 5.0 | 0.00 | 0.01 | 0.00 | 80 | 1011.5 |
| 20260507053005 | 42 | 341 | 1.0 | 4.0 | 0.00 | 0.01 | 0.00 | 80 | 1011.4 |
| 20260507052504 | 42 | 342 | 2.0 | 4.0 | 0.00 | 0.01 | 0.00 | 80 | 1011.6 |
| 20260507052025 | 42 | 344 | 2.0 | 5.0 | 0.00 | 0.01 | 0.00 | 80 | 1011.6 |
| 20260507051525 | 42 | 347 | 2.0 | 4.0 | 0.00 | 0.01 | 0.00 | 80 | 1011.7 |
| 20260507051004 | 42 | 357 | 2.0 | 5.0 | 0.00 | 0.01 | 0.00 | 81 | 1011.6 |
| 20260507050525 | 42 | 14 | 2.0 | 7.0 | 0.00 | 0.01 | 0.00 | 81 | 1011.8 |
| 20260507050004 | 42 | 18 | 2.0 | 5.0 | 0.00 | 0.01 | 0.00 | 81 | 1011.9 |
| 20260507045504 | 42 | 18 | 1.0 | 3.0 | 0.00 | 0.01 | 0.00 | 81 | 1011.8 |
| 20260507045004 | 42 | 18 | 1.0 | 4.0 | 0.00 | 0.01 | 0.00 | 81 | 1011.7 |
| 20260507044503 | 42 | 19 | 1.0 | 5.0 | 0.00 | 0.01 | 0.00 | 81 | 1011.8 |
| 20260507044004 | 42 | 20 | 1.0 | 4.0 | 0.00 | 0.01 | 0.00 | 81 | 1011.8 |
| 20260507043504 | 41 | 20 | 1.0 | 4.0 | 0.00 | 0.02 | 0.00 | 81 | 1011.9 |
| 20260507043004 | 41 | 20 | 0.0 | 4.0 | 0.00 | 0.02 | 0.00 | 81 | 1011.9 |
| 20260507042504 | 41 | 0 | 0.0 | 0.0 | 0.00 | 0.02 | 0.00 | 81 | 1011.9 |
| 20260507042004 | 41 | 19 | 0.0 | 0.0 | 0.00 | 0.02 | 0.00 | 81 | 1012.0 |
| 20260507041504 | 40 | 19 | 0.0 | 4.0 | 0.00 | 0.02 | 0.00 | 81 | 1012.0 |
| 20260507041004 | 40 | 0 | 0.0 | 1.0 | 0.00 | 0.02 | 0.00 | 81 | 1012.1 |
| 20260507040525 | 40 | 0 | 0.0 | 0.0 | 0.00 | 0.02 | 0.00 | 81 | 1012.0 |
| 20260507040004 | 40 | 0 | 0.0 | 0.0 | 0.00 | 0.02 | 0.00 | 81 | 1012.1 |
| 20260507035504 | 40 | 0 | 0.0 | 0.0 | 0.00 | 0.02 | 0.02 | 81 | 1012.1 |
| 20260507035004 | 40 | 0 | 0.0 | 0.0 | 0.00 | 0.02 | 0.02 | 81 | 1012.1 |
| 20260507034504 | 40 | 0 | 0.0 | 0.0 | 0.00 | 0.02 | 0.02 | 80 | 1012.1 |
| 20260507034025 | 40 | 0 | 0.0 | 0.0 | 0.00 | 0.03 | 0.02 | 80 | 1012.1 |
| 20260507033503 | 40 | 0 | 0.0 | 0.0 | 0.00 | 0.03 | 0.02 | 79 | 1012.2 |
| 20260507033004 | 40 | 0 | 0.0 | 0.0 | 0.00 | 0.03 | 0.02 | 79 | 1012.3 |
| 20260507032504 | 40 | 0 | 0.0 | 0.0 | 0.00 | 0.03 | 0.02 | 79 | 1012.1 |
| 20260507032004 | 40 | 0 | 0.0 | 0.0 | 0.00 | 0.03 | 0.02 | 79 | 1012.2 |
| 20260507031504 | 40 | 0 | 0.0 | 0.0 | 0.00 | 0.03 | 0.02 | 79 | 1012.3 |
| 20260507031004 | 40 | 0 | 0.0 | 0.0 | 0.00 | 0.03 | 0.02 | 79 | 1012.4 |
| 20260507030503 | 40 | 0 | 0.0 | 0.0 | 0.00 | 0.03 | 0.02 | 79 | 1012.3 |
| 20260507030004 | 40 | 0 | 0.0 | 0.0 | 0.00 | 0.03 | 0.02 | 79 | 1012.3 |
| 20260507025504 | 40 | 0 | 0.0 | 0.0 | 0.00 | 0.03 | 0.02 | 79 | 1012.3 |
| 20260507025004 | 40 | 0 | 0.0 | 0.0 | 0.00 | 0.03 | 0.02 | 78 | 1012.3 |
| 20260507024503 | 40 | 0 | 0.0 | 0.0 | 0.00 | 0.03 | 0.02 | 77 | 1012.1 |
| 20260507024004 | 40 | 0 | 0.0 | 0.0 | 0.00 | 0.03 | 0.02 | 77 | 1012.1 |
| 20260507023524 | 40 | 0 | 0.0 | 0.0 | 0.00 | 0.03 | 0.02 | 74 | 1012.1 |
| 20260507023004 | 40 | 0 | 0.0 | 0.0 | 0.00 | 0.03 | 0.02 | 74 | 1012.1 |
| 20260507022503 | 40 | 0 | 0.0 | 0.0 | 0.00 | 0.03 | 0.02 | 73 | 1012.0 |
| 20260507022025 | 41 | 0 | 0.0 | 0.0 | 0.00 | 0.03 | 0.02 | 73 | 1012.1 |
| 20260507021503 | 41 | 0 | 0.0 | 0.0 | 0.00 | 0.03 | 0.02 | 73 | 1012.1 |
| 20260507021025 | 41 | 0 | 0.0 | 0.0 | 0.00 | 0.03 | 0.02 | 73 | 1012.1 |
| 20260507020503 | 42 | 0 | 0.0 | 0.0 | 0.00 | 0.03 | 0.02 | 73 | 1012.0 |
| 20260507020004 | 42 | 0 | 0.0 | 0.0 | 0.00 | 0.03 | 0.02 | 72 | 1012.1 |
| 20260507015504 | 42 | 0 | 0.0 | 0.0 | 0.00 | 0.03 | 0.02 | 71 | 1012.0 |
| 20260507015004 | 42 | 0 | 0.0 | 0.0 | 0.00 | 0.03 | 0.02 | 71 | 1012.0 |
| 20260507014504 | 42 | 0 | 0.0 | 0.0 | 0.00 | 0.03 | 0.02 | 70 | 1012.1 |
| 20260507014004 | 43 | 0 | 0.0 | 0.0 | 0.00 | 0.03 | 0.02 | 70 | 1012.0 |
| 20260507013503 | 43 | 0 | 0.0 | 0.0 | 0.00 | 0.03 | 0.02 | 70 | 1011.9 |
| 20260507013003 | 43 | 0 | 0.0 | 0.0 | 0.00 | 0.03 | 0.02 | 70 | 1012.0 |
| 20260507012504 | 44 | 0 | 0.0 | 0.0 | 0.00 | 0.03 | 0.02 | 70 | 1011.9 |
| 20260507012003 | 44 | 0 | 0.0 | 0.0 | 0.00 | 0.03 | 0.02 | 70 | 1012.0 |
| 20260507011504 | 44 | 0 | 0.0 | 0.0 | 0.00 | 0.03 | 0.02 | 70 | 1012.1 |
| 20260507010503 | 45 | 0 | 0.0 | 0.0 | 0.00 | 0.03 | 0.02 | 68 | 1012.1 |
| 20260507010024 | 45 | 0 | 0.0 | 0.0 | 0.00 | 0.03 | 0.02 | 67 | 1012.1 |
| 20260507005503 | 45 | 0 | 0.0 | 0.0 | 0.00 | 0.03 | 0.02 | 66 | 1012.2 |
| 20260507005004 | 46 | 0 | 0.0 | 0.0 | 0.00 | 0.03 | 0.02 | 64 | 1012.1 |
| 20260507004503 | 46 | 0 | 0.0 | 0.0 | 0.00 | 0.03 | 0.02 | 63 | 1012.1 |
| 20260507004003 | 46 | 0 | 0.0 | 0.0 | 0.00 | 0.03 | 0.02 | 63 | 1012.1 |
| 20260507003503 | 47 | 0 | 0.0 | 0.0 | 0.00 | 0.03 | 0.02 | 62 | 1012.1 |
| 20260507003003 | 47 | 0 | 0.0 | 0.0 | 0.00 | 0.03 | 0.02 | 62 | 1012.1 |
| 20260507002503 | 47 | 0 | 0.0 | 0.0 | 0.00 | 0.03 | 0.02 | 61 | 1012.0 |
| 20260507002004 | 48 | 0 | 0.0 | 0.0 | 0.00 | 0.03 | 0.02 | 61 | 1011.9 |
| 20260507001503 | 48 | 0 | 0.0 | 0.0 | 0.00 | 0.03 | 0.02 | 60 | 1011.9 |
| 20260507001003 | 48 | 7 | 0.0 | 0.0 | 0.00 | 0.03 | 0.02 | 60 | 1011.8 |
| 20260507000503 | 48 | 10 | 1.0 | 3.0 | 0.00 | 0.03 | 0.02 | 60 | 1011.8 |
| 20260507000024 | 48 | 13 | 1.0 | 5.0 | 0.00 | 0.03 | 0.02 | 59 | 1011.7 |
| 20260506235503 | 49 | 17 | 2.0 | 5.0 | 0.00 | 0.03 | 0.02 | 59 | 1011.7 |
| 20260506235003 | 49 | 17 | 2.0 | 5.0 | 0.00 | 0.03 | 0.02 | 58 | 1011.7 |
| 20260506234503 | 49 | 17 | 2.0 | 5.0 | 0.00 | 0.03 | 0.02 | 59 | 1011.7 |
| 20260506234003 | 49 | 18 | 2.0 | 5.0 | 0.00 | 0.03 | 0.02 | 59 | 1011.6 |
| 20260506233503 | 49 | 17 | 2.0 | 5.0 | 0.00 | 0.03 | 0.02 | 58 | 1011.7 |
| 20260506233024 | 49 | 11 | 3.0 | 5.0 | 0.00 | 0.03 | 0.02 | 58 | 1011.7 |
| 20260506232524 | 50 | 12 | 3.0 | 7.0 | 0.00 | 0.03 | 0.02 | 57 | 1011.8 |
| 20260506232003 | 50 | 11 | 3.0 | 8.0 | 0.00 | 0.03 | 0.02 | 57 | 1011.7 |
| 20260506231503 | 50 | 356 | 4.0 | 7.0 | 0.00 | 0.03 | 0.02 | 57 | 1011.8 |
| 20260506231003 | 50 | 355 | 3.0 | 12.0 | 0.00 | 0.03 | 0.02 | 57 | 1011.9 |
| 20260506230503 | 51 | 7 | 3.0 | 11.0 | 0.00 | 0.03 | 0.02 | 57 | 1011.9 |
| 20260506230003 | 51 | 16 | 2.0 | 7.0 | 0.00 | 0.03 | 0.02 | 56 | 1011.9 |
| 20260506225503 | 51 | 9 | 3.0 | 9.0 | 0.00 | 0.03 | 0.02 | 55 | 1012.0 |
| 20260506225003 | 52 | 1 | 4.0 | 12.0 | 0.00 | 0.03 | 0.02 | 55 | 1012.0 |
| 20260506224524 | 52 | 360 | 4.0 | 12.0 | 0.00 | 0.03 | 0.02 | 55 | 1011.9 |
| 20260506224003 | 52 | 360 | 4.0 | 8.0 | 0.00 | 0.03 | 0.02 | 56 | 1011.9 |
| 20260506223503 | 51 | 2 | 4.0 | 12.0 | 0.00 | 0.03 | 0.02 | 57 | 1012.1 |
| 20260506223003 | 51 | 11 | 4.0 | 7.0 | 0.00 | 0.03 | 0.02 | 57 | 1012.0 |
| 20260506222504 | 51 | 11 | 5.0 | 13.0 | 0.00 | 0.03 | 0.02 | 56 | 1011.9 |
| 20260506222003 | 50 | 7 | 4.0 | 11.0 | 0.00 | 0.03 | 0.02 | 57 | 1011.8 |
| 20260506221504 | 50 | 1 | 4.0 | 12.0 | 0.00 | 0.03 | 0.02 | 56 | 1011.9 |
| 20260506221003 | 50 | 358 | 3.0 | 9.0 | 0.00 | 0.03 | 0.02 | 56 | 1011.8 |
| 20260506220504 | 50 | 360 | 4.0 | 7.0 | 0.00 | 0.03 | 0.02 | 56 | 1011.8 |
| 20260506220003 | 51 | 359 | 6.0 | 13.0 | 0.00 | 0.03 | 0.02 | 56 | 1011.8 |
| 20260506215503 | 51 | 358 | 6.0 | 19.0 | 0.00 | 0.03 | 0.02 | 55 | 1011.7 |
| 20260506215004 | 50 | 4 | 5.0 | 12.0 | 0.00 | 0.03 | 0.02 | 55 | 1011.7 |
| 20260506214503 | 50 | 2 | 4.0 | 15.0 | 0.00 | 0.03 | 0.02 | 56 | 1011.7 |
| 20260506214024 | 50 | 349 | 4.0 | 8.0 | 0.00 | 0.03 | 0.02 | 56 | 1011.6 |
| 20260506213504 | 50 | 355 | 5.0 | 13.0 | 0.00 | 0.03 | 0.02 | 56 | 1011.5 |
| 20260506213003 | 50 | 360 | 5.0 | 11.0 | 0.00 | 0.03 | 0.02 | 55 | 1011.5 |
| 20260506212503 | 51 | 360 | 5.0 | 11.0 | 0.00 | 0.03 | 0.02 | 55 | 1011.4 |
| 20260506212003 | 51 | 360 | 5.0 | 13.0 | 0.00 | 0.03 | 0.02 | 55 | 1011.5 |
| 20260506211503 | 51 | 360 | 5.0 | 11.0 | 0.00 | 0.03 | 0.02 | 55 | 1011.5 |
| 20260506211003 | 51 | 360 | 6.0 | 12.0 | 0.00 | 0.03 | 0.02 | 53 | 1011.4 |
| 20260506210503 | 51 | 360 | 5.0 | 13.0 | 0.00 | 0.03 | 0.02 | 55 | 1011.5 |
| 20260506210004 | 51 | 360 | 5.0 | 13.0 | 0.00 | 0.03 | 0.02 | 33 | 1011.4 |
| 20260506205503 | 50 | 360 | 5.0 | 8.0 | 0.00 | 0.03 | 0.02 | 33 | 1011.4 |
| 20260506205003 | 51 | 360 | 5.0 | 16.0 | 0.00 | 0.03 | 0.02 | 53 | 1011.4 |
| 20260506204503 | 51 | 360 | 5.0 | 11.0 | 0.00 | 0.03 | 0.02 | 56 | 1011.4 |
| 20260506204024 | 51 | 360 | 6.0 | 15.0 | 0.00 | 0.03 | 0.02 | 57 | 1011.2 |
| 20260506203524 | 49 | 360 | 6.0 | 13.0 | 0.00 | 0.03 | 0.02 | 60 | 1011.2 |
| 20260506203003 | 49 | 358 | 7.0 | 15.0 | 0.00 | 0.03 | 0.02 | 60 | 1011.2 |
| 20260506202503 | 49 | 356 | 5.0 | 16.0 | 0.00 | 0.03 | 0.02 | 60 | 1011.2 |
| 20260506202003 | 49 | 8 | 6.0 | 12.0 | 0.00 | 0.03 | 0.02 | 60 | 1011.3 |
| 20260506201504 | 48 | 21 | 5.0 | 15.0 | 0.00 | 0.03 | 0.02 | 60 | 1011.3 |
| 20260506201004 | 48 | 18 | 5.0 | 12.0 | 0.00 | 0.03 | 0.02 | 63 | 1011.1 |
| 20260506200524 | 48 | 9 | 6.0 | 16.0 | 0.00 | 0.03 | 0.02 | 41 | 1011.2 |
| 20260506200024 | 48 | 8 | 7.0 | 20.0 | 0.00 | 0.03 | 0.02 | 40 | 1011.3 |